• Join FlightAware (Why Join?)
  • Login
  • US Flag 
12:41PM EST


 

Airport Tracker/Info


-or-


 

Live Flight TrackerFlight Track Log ✈ SWA311 ✈ 17-Jul-2013 ✈ KSNA - KOAK

Flight Track Log - Related Links

Times and Time Zones

All times are in EDT time to prevent confusion due to time zone crossing. See the SWA311 flight status page for this flight to view local times or setup timezone preferences in your user account.

Time Position Orientation Groundspeed Altitude Reporting Facility
EDT Latitude Longitude Course Direction KTS MPH feet Rate Location/Type
11:43AM 33.6514 -117.8831 195° South 140 161 1,700  Level Los Angeles Center
11:44AM 33.6125 -117.8956 195° South 144 166 3,100 1,790 Climbing Los Angeles Center
11:45AM 33.5589 -117.9069 190° South 193 222 5,400 2,352 Climbing Los Angeles Center
11:46AM 33.5044 -117.9514 214° Southwest 227 261 8,000 1,488 Climbing Los Angeles Center
11:47AM 33.4386 -118.0036 214° Southwest 261 300 8,500 1,645 Climbing Los Angeles Center
11:48AM 33.3931 -118.0769 233° Southwest 295 339 11,400 2,912 Climbing Los Angeles Center
11:49AM 33.3881 -118.1747 267° West 294 338 15,100 3,574 Climbing Los Angeles Center
11:50AM 33.3800 -118.3281 266° West 325 374 19,500 3,312 Climbing Los Angeles Center
11:51AM 33.4411 -118.4175 309° West 363 418 22,000 2,365 Climbing Los Angeles Center
11:53AM 33.5478 -118.4242 357° North 382 440 24,900 2,206 Climbing Los Angeles Center
11:54AM 33.6886 -118.4289 358° North 424 488 27,000 2,032 Climbing Los Angeles Center
11:55AM 33.8217 -118.4317 359° North 450 518 29,100 1,968 Climbing Los Angeles Center
11:56AM 33.9514 -118.4439 356° North 463 533 31,100 1,872 Climbing Los Angeles Center
11:57AM 34.0739 -118.5022 338° Northwest 470 541 33,000 1,887 Climbing Los Angeles Center
11:58AM 34.1956 -118.5608 338° Northwest 471 542 35,000 1,984 Climbing Los Angeles Center
11:59AM 34.3431 -118.6350 337° Northwest 477 549 37,100 1,790 Climbing Los Angeles Center
12:00PM 34.4667 -118.6975 337° Northwest 482 555 38,700 1,403 Climbing Los Angeles Center
12:01PM 34.5911 -118.7578 338° Northwest 481 554 40,000 629 Climbing Los Angeles Center
12:02PM 34.7144 -118.8197 338° Northwest 481 554 40,000  Level Los Angeles Center
12:03PM 34.8317 -118.8917 333° Northwest 478 550 40,000  Level Los Angeles Center
12:04PM 34.9506 -119.0064 322° Northwest 459 528 40,000  Level Los Angeles Center
12:05PM 35.0503 -119.1036 321° Northwest 458 527 40,000  Level Los Angeles Center
12:06PM 35.1517 -119.2031 321° Northwest 467 537 40,000  Level Los Angeles Center
12:07PM 35.2528 -119.3003 322° Northwest 466 536 40,000  Level Los Angeles Center
12:08PM 35.3525 -119.3961 322° Northwest 459 528 40,000  Level Los Angeles Center
12:09PM 35.4533 -119.4972 321° Northwest 470 541 40,000  Level Los Angeles Center
12:10PM 35.5722 -119.6169 321° Northwest 467 537 40,000  Level Los Angeles Center
12:11PM 35.6717 -119.7147 321° Northwest 462 532 40,000  Level Los Angeles Center
12:12PM 35.7703 -119.8147 321° Northwest 467 537 40,000  Level Oakland Center
12:13PM 35.8711 -119.9164 321° Northwest 469 540 40,000  Level Oakland Center
12:14PM 35.9717 -120.0164 321° Northwest 471 542 40,000 -439 Level Oakland Center
12:15PM 36.0717 -120.1181 321° Northwest 471 542 39,100 -934 Descending Oakland Center
12:16PM 36.1708 -120.2183 321° Northwest 465 535 38,100 -1,659 Descending Oakland Center
12:17PM 36.2911 -120.3422 320° Northwest 471 542 35,700 -2,439 Descending Oakland Center
12:18PM 36.3914 -120.4442 321° Northwest 469 540 33,100 -2,341 Descending Oakland Center
12:19PM 36.4886 -120.5417 321° Northwest 454 522 30,900 -2,146 Descending Oakland Center
12:20PM 36.5803 -120.6389 320° Northwest 438 504 28,700 -2,098 Descending Oakland Center
12:21PM 36.6700 -120.7297 321° Northwest 420 483 26,600 -2,049 Descending Oakland Center
12:22PM 36.7542 -120.8203 319° Northwest 404 465 24,500 -2,098 Descending Oakland Center
12:23PM 36.8383 -120.9189 317° Northwest 393 452 22,300 -2,049 Descending Oakland Center
12:25PM 36.9144 -121.0058 318° Northwest 376 433 20,300 -1,902 Descending Oakland Center
12:26PM 36.9886 -121.0911 317° Northwest 364 419 18,400 -1,854 Descending Oakland Center
12:27PM 37.0622 -121.1739 318° Northwest 352 405 16,500 -1,805 Descending Oakland Center
12:28PM 37.1306 -121.2536 317° Northwest 344 396 14,700 -2,000 Descending Oakland Center
12:29PM 37.2128 -121.3511 317° Northwest 340 391 12,400 -2,049 Descending Oakland Center
12:30PM 37.2797 -121.4292 317° Northwest 331 381 10,500 -1,171 Descending Oakland Center
12:31PM 37.3439 -121.5022 318° Northwest 316 364 10,000 -1,200 Descending Oakland Center
12:31PM 37.3833 -121.5500 316° Northwest 297 342 8,600 -1,915 Descending Northern Cal TRACON
12:32PM 37.4333 -121.6167 313° West 284 327 7,000 -1,300 Descending Northern Cal TRACON
12:33PM 37.5000 -121.6833 322° Northwest 280 322 6,000 -500 Descending Northern Cal TRACON
12:34PM 37.5500 -121.7333 322° Northwest 238 274 6,000  Level Northern Cal TRACON
12:35PM 37.5833 -121.7833 310° West 223 257 6,000 -421 Level Northern Cal TRACON
12:36PM 37.6167 -121.8500 302° West 232 267 5,200 -900 Descending Northern Cal TRACON
12:37PM 37.5833 -121.9167 238° Southwest 224 258 4,200 -550 Descending Northern Cal TRACON
12:38PM 37.5667 -121.9833 253° West 203 234 4,100 -500 Descending Northern Cal TRACON
12:39PM 37.6000 -122.0500 302° West 198 228 3,200 -893 Descending Northern Cal TRACON
12:40PM 37.6333 -122.1000 310° West 180 207 2,300 -843 Descending Northern Cal TRACON
12:41PM 37.6500 -122.1500 293° West 142 163 1,500 -800 Descending Northern Cal TRACON
12:42PM 37.6833 -122.1833 322° Northwest 126 145 700 -700 Descending Northern Cal TRACON
12:43PM 37.7000 -122.2167 302° West 126 145 100 -600 Descending Northern Cal TRACON
12:46PM 37.7167 -122.2167 270° West  Level FlightAware Approximate
12:53PM 37.7213 -122.2207 270° West  Level Estimated